星链-4260 (STARLINK-4260 )

导读

STARLINK-4260是美国太空探索技术公司(SpaceX)的星链卫星,于2022年7月7日发射升空,属于星链星座组网卫星,旨在为全球提供高速低延迟互联网服务,尤其覆盖偏远地区与网络基础设施薄弱区域。星链计划通过大规模低轨卫星组网,推动全球互联网接入普及,该卫星是星座部署进程中的一环,助力系统服务能力持续拓展。

Basic Information
目录编号:
52986
目录名称:
STARLINK-4260
国际标识:
2022-076A
轨道中心:
EARTH
卫星名称:
星链-4260
卫星全名:
星链-4260 (STARLINK-4260 )
卫星状态:
在轨 (已飞行1520 天)
发射日期:
2022-07-07 UTC
国别 :
美国 (US)
星等 :
--
Orbit Information
数据来源 国际轨道数据 AOE轨道数据
星历时间 2026-09-04T00:56:06+0800
11小时前
查看轨道信息
2026-09-02T16:00:00+0800
1天前
查看轨道信息
半长轴 6843.391km 6843.407km
偏心率 0.0000829 0.0000928
轨道倾角 53.160° 53.160°
近地点辐角 101.296° 58.209°
升交点赤经 2.575° 8.982°
平近点角 258.814° 281.561°
近地点 464.686km 464.634km
远地点 465.822km 465.906km
周期 93.900分钟 93.901分钟
每日圈数 15.335422 15.335371
Detailed Information
固有亮度:
5
最大亮度:
2.5
卫星平台:
Starlink v1.5
覆盖范围:
全球
运营商:
太空探索技术公司
运营商所在国:
美国
制造商(研发单位):
太空探索技术公司
制造商所在国:
美国
使用方式:
暂无
Satellite Introduction
星链(Starlink)计划是由太空探索技术公司(SpaceX)提出的一个巨型低轨卫星互联网星座项目,计划在2019年至2024年间在太空搭建由约1.2万颗卫星组成的“星链”网络,其中1584颗将部署在地球上空550千米处的近地轨道,并从2020年开始工作。该卫星仍在工作。
2D Orbit Map
3D Orbit Map
Orbit Altitude Analysis Chart
Orbit Inclination Analysis Chart
Orbit Comprehensive Analysis Chart
View Comprehensive Chart
Conjunction Data List
Event ID Objects TCA Miss Dist (km) Collision Risk Probability Collision Risk Index (CRI) Action
CDM_260905-002705-188505-298621
2026-09-05T
00:27:58+0000
0.268 km
中距离
4.797861E-4 高风险 0.89
CDM_260903-203305-082305-298621
2026-09-03T
20:33:58+0000
0.653 km
远距离
6.795489E-5 中风险 0.72
CDM_260904-225405-188505-298621
2026-09-04T
22:54:07+0000
0.775 km
远距离
4.462867E-5 中风险 0.68
CDM_260903-054205-082305-298621
2026-09-03T
05:42:26+0000
0.769 km
远距离
4.113693E-5 中风险 0.67
CDM_260905-020105-188505-298621
2026-09-05T
02:01:49+0000
0.926 km
远距离
2.475556E-5 中风险 0.63
CDM_260831-124204-750205-298622
HAWK-2C (47502)
2026-08-31T
12:42:17+0000
1.075 km
极远距离
1.744003E-5 中风险 0.6
CDM_260903-040805-082305-298621
2026-09-03T
04:08:35+0000
1.163 km
极远距离
1.011841E-5 中风险 0.55
CDM_260904-212005-188505-298621
2026-09-04T
21:20:16+0000
1.545 km
极远距离
4.350061E-6 低风险 0.48
CDM_260905-033505-188505-298621
2026-09-05T
03:35:40+0000
1.736 km
极远距离
3.054475E-6 低风险 0.45
CDM_260903-190005-082305-298621
2026-09-03T
19:00:08+0000
1.720 km
极远距离
2.840655E-6 低风险 0.44